Clovis, NM

2:03 AM MDT on September 21, 2017 (GMT -0600)
Clovis Municipal

Weather History for KCVN - January, 2013

Change the Weather History Date:

Saturday, January 5, 2013

  Actual Average Record
Temperature  
Mean Temperature 36 °F -  
Max Temperature 51 °F 47 °F 76 °F (1927)
Min Temperature 21 °F 21 °F -5 °F (1971)
Degree Days  
Heating Degree Days 29    
Moisture  
Dew Point 16 °F    
Average Humidity 58    
Maximum Humidity 93    
Minimum Humidity 21    
Precipitation  
Precipitation 0.00 in - - ()
Sea Level Pressure  
Sea Level Pressure 30.22 in    
Wind  
Wind Speed 16 mph (NNW)    
Max Wind Speed 21 mph    
Max Gust Speed 25 mph    
Visibility 10 miles    
Events      
Averages and records for this station are not official NWS values.
T = Trace of Precipitation, MM = Missing Value Source: NWS Daily Summary

Daily Weather History Graph

Daily Weather History Graph

Search for Another Location

Airport or City:

Trip Planner

Search our weather history database for the weather conditions in past years. The results will help you decide how hot, cold, wet, or windy it might be!

Date:

Astronomy

Jan. 05, 2013 Rise Set
Actual Time 6:59 AM MST 4:56 PM MST
Civil Twilight 6:31 AM MST 5:24 PM MST
Nautical Twilight 6:00 AM MST 5:55 PM MST
Astronomical Twilight 5:30 AM MST 6:26 PM MST
Moon 12:17 AM MST (1/5) 11:40 AM MST (1/5)
Length of Visible Light 10h 52m
Length of Day
9h 57m
Last Quarter, 43% of the Moon is Illuminated
Jan 5
Last Quarter
Jan 11
New
Jan 18
First Quarter
Jan 26
Full
Feb 3
Last Quarter

Hourly Weather History & Observations

Time (MST) Temp. Windchill Dew Point Humidity Pressure Visibility Wind Dir Wind Speed Gust Speed Precip Events Conditions
12:15 AM 26.6 °F 13.1 °F 21.2 °F 80% 30.12 in 10.0 mi SW 19.6 mph 23.0 mph N/A   Overcast
12:35 AM 24.8 °F 11.1 °F 21.2 °F 86% 30.11 in 10.0 mi SW 18.4 mph 23.0 mph N/A   Overcast
12:55 AM 24.8 °F 11.5 °F 21.2 °F 86% 30.11 in 10.0 mi WSW 17.3 mph 20.7 mph N/A   Overcast
1:15 AM 24.8 °F 10.3 °F 19.4 °F 80% 30.10 in 10.0 mi WSW 20.7 mph 25.3 mph N/A   Overcast
1:35 AM 24.8 °F 11.1 °F 19.4 °F 80% 30.10 in 10.0 mi WSW 18.4 mph - N/A   Mostly Cloudy
1:55 AM 23.0 °F 9.6 °F 19.4 °F 86% 30.10 in 10.0 mi WSW 16.1 mph - N/A   Partly Cloudy
2:15 AM 21.2 °F 7.3 °F 19.4 °F 93% 30.10 in 10.0 mi WSW 16.1 mph - N/A   Scattered Clouds
2:35 AM 21.2 °F 6.8 °F 17.6 °F 86% 30.10 in 10.0 mi WSW 17.3 mph - N/A   Partly Cloudy
2:55 AM 21.2 °F 7.8 °F 17.6 °F 86% 30.10 in 10.0 mi WSW 15.0 mph - N/A   Clear
3:15 AM 21.2 °F 6.8 °F 19.4 °F 93% 30.09 in 10.0 mi WSW 17.3 mph - N/A   Clear
3:35 AM 21.2 °F 6.4 °F 17.6 °F 86% 30.10 in 10.0 mi West 18.4 mph - N/A   Clear
3:55 AM 21.2 °F 5.6 °F 17.6 °F 86% 30.09 in 10.0 mi WSW 20.7 mph 25.3 mph N/A   Clear
4:15 AM 21.2 °F 6.8 °F 17.6 °F 86% 30.10 in 10.0 mi West 17.3 mph - N/A   Clear
4:35 AM 21.2 °F 6.8 °F 17.6 °F 86% 30.10 in 10.0 mi West 17.3 mph 21.9 mph N/A   Clear
4:55 AM 21.2 °F 7.3 °F 17.6 °F 86% 30.10 in 10.0 mi West 16.1 mph - N/A   Clear
5:15 AM 21.2 °F 7.3 °F 17.6 °F 86% 30.10 in 10.0 mi West 16.1 mph - N/A   Clear
5:35 AM 23.0 °F 9.2 °F 17.6 °F 80% 30.11 in 10.0 mi West 17.3 mph - N/A   Clear
5:55 AM 23.0 °F 9.2 °F 17.6 °F 80% 30.12 in 10.0 mi West 17.3 mph - N/A   Clear
6:15 AM 23.0 °F 9.2 °F 17.6 °F 80% 30.13 in 10.0 mi West 17.3 mph - N/A   Clear
6:35 AM 23.0 °F 9.2 °F 15.8 °F 74% 30.13 in 10.0 mi West 17.3 mph - N/A   Clear
6:55 AM 24.8 °F 11.1 °F 15.8 °F 69% 30.14 in 10.0 mi West 18.4 mph - N/A   Clear
7:15 AM 24.8 °F 11.9 °F 15.8 °F 69% 30.15 in 10.0 mi West 16.1 mph - N/A   Clear
7:35 AM 24.8 °F 11.1 °F 15.8 °F 69% 30.16 in 10.0 mi West 18.4 mph - N/A   Clear
7:55 AM 26.6 °F 14.3 °F 15.8 °F 64% 30.18 in 10.0 mi West 16.1 mph - N/A   Clear
8:15 AM 28.4 °F 15.1 °F 15.8 °F 59% 30.18 in 10.0 mi West 20.7 mph - N/A   Clear
8:55 AM 30.2 °F 18.1 °F 17.6 °F 60% 30.20 in 10.0 mi WNW 18.4 mph - N/A   Clear
9:15 AM 33.8 °F 23.2 °F 17.6 °F 52% 30.22 in 10.0 mi WNW 17.3 mph - N/A   Clear
9:55 AM 39.2 °F 30.8 °F 19.4 °F 45% 30.21 in 10.0 mi WNW 15.0 mph - N/A   Clear
10:15 AM 41.0 °F 33.9 °F 19.4 °F 42% 30.21 in 10.0 mi NW 12.7 mph - N/A   Clear
10:55 AM 46.4 °F 41.1 °F 19.4 °F 34% 30.21 in 10.0 mi NNW 11.5 mph - N/A   Clear
11:15 AM 48.2 °F - 17.6 °F 30% 30.22 in 10.0 mi NNE 17.3 mph - N/A   Clear
11:35 AM 48.2 °F - 15.8 °F 27% 30.22 in 10.0 mi North 13.8 mph 18.4 mph N/A   Clear
11:55 AM 50.0 °F - 15.8 °F 26% 30.21 in 10.0 mi North 13.8 mph - N/A   Clear
12:15 PM 51.8 °F - 14.0 °F 22% 30.21 in 10.0 mi NNE 15.0 mph 19.6 mph N/A   Clear
12:35 PM 51.8 °F - 12.2 °F 21% 30.21 in 10.0 mi North 10.4 mph 16.1 mph N/A   Clear
12:55 PM 51.8 °F - 12.2 °F 21% 30.21 in 10.0 mi North 12.7 mph 16.1 mph N/A   Clear
1:15 PM 51.8 °F - 12.2 °F 21% 30.20 in 10.0 mi North 11.5 mph 17.3 mph N/A   Clear
1:35 PM 51.8 °F - 14.0 °F 22% 30.20 in 10.0 mi North 17.3 mph - N/A   Clear
1:55 PM 51.8 °F - 12.2 °F 21% 30.21 in 10.0 mi North 15.0 mph - N/A   Clear
2:15 PM 51.8 °F - 15.8 °F 24% 30.21 in 10.0 mi NNE 17.3 mph 20.7 mph N/A   Clear
2:35 PM 50.0 °F - 14.0 °F 24% 30.22 in 10.0 mi North 19.6 mph 24.2 mph N/A   Clear
2:55 PM 48.2 °F - 14.0 °F 25% 30.23 in 10.0 mi North 16.1 mph - N/A   Clear
3:15 PM 48.2 °F - 12.2 °F 24% 30.24 in 10.0 mi NNE 16.1 mph - N/A   Clear
3:55 PM 46.4 °F 39.8 °F 15.8 °F 29% 30.25 in 10.0 mi NNE 16.1 mph - N/A   Clear
4:15 PM 44.6 °F 37.4 °F 15.8 °F 31% 30.26 in 10.0 mi NNE 16.1 mph - N/A   Clear
4:35 PM 42.8 °F 36.2 °F 12.2 °F 29% 30.27 in 10.0 mi NNE 12.7 mph - N/A   Clear
4:55 PM 39.2 °F 33.0 °F 12.2 °F 33% 30.28 in 10.0 mi NNE 9.2 mph - N/A   Clear
5:15 PM 37.4 °F 30.3 °F 12.2 °F 36% 30.28 in 10.0 mi NNE 10.4 mph - N/A   Clear
5:35 PM 33.8 °F 27.0 °F 10.4 °F 38% 30.29 in 10.0 mi North 8.1 mph - N/A   Clear
5:55 PM 30.2 °F 24.3 °F 10.4 °F 44% 30.30 in 10.0 mi NNE 5.8 mph - N/A   Clear
6:15 PM 28.4 °F 19.1 °F 10.4 °F 47% 30.31 in 10.0 mi North 10.4 mph - N/A   Clear
6:55 PM 28.4 °F 17.0 °F 12.2 °F 51% 30.32 in 10.0 mi North 15.0 mph - N/A   Clear
7:15 PM 28.4 °F 17.5 °F 12.2 °F 51% 30.32 in 10.0 mi North 13.8 mph - N/A   Clear
7:35 PM 28.4 °F 18.5 °F 12.2 °F 51% 30.33 in 10.0 mi North 11.5 mph - N/A   Clear
7:55 PM 28.4 °F 17.5 °F 15.8 °F 59% 30.33 in 10.0 mi North 13.8 mph - N/A   Clear
8:15 PM 28.4 °F 17.0 °F 15.8 °F 59% 30.34 in 10.0 mi North 15.0 mph - N/A   Clear
8:35 PM 26.6 °F 15.2 °F 15.8 °F 64% 30.35 in 10.0 mi North 13.8 mph - N/A   Clear
8:55 PM 26.6 °F 16.8 °F 15.8 °F 64% 30.35 in 10.0 mi North 10.4 mph - N/A   Clear
9:15 PM 24.8 °F 14.0 °F 15.8 °F 69% 30.36 in 10.0 mi North 11.5 mph - N/A   Clear
9:35 PM 24.8 °F 13.4 °F 17.6 °F 74% 30.36 in 10.0 mi North 12.7 mph - N/A   Clear
9:55 PM 26.6 °F 16.8 °F 17.6 °F 69% 30.37 in 10.0 mi North 10.4 mph - N/A   Clear
10:15 PM 24.8 °F 15.3 °F 15.8 °F 69% 30.38 in 10.0 mi North 9.2 mph - N/A   Clear
10:35 PM 23.0 °F 13.1 °F 15.8 °F 74% 30.38 in 10.0 mi North 9.2 mph - N/A   Clear
10:55 PM 21.2 °F 10.9 °F 14.0 °F 74% 30.38 in 10.0 mi NNW 9.2 mph - N/A   Clear
11:15 PM 21.2 °F 10.1 °F 14.0 °F 74% 30.38 in 10.0 mi North 10.4 mph - N/A   Clear
11:35 PM 21.2 °F 10.1 °F 12.2 °F 68% 30.38 in 10.0 mi North 10.4 mph - N/A   Clear
11:55 PM 21.2 °F 10.1 °F 14.0 °F 74% 30.37 in 10.0 mi North 10.4 mph - N/A   Clear